Regional Weather Roundup
Issued by NWS

Home | Current Version | Previous Version | Graphics & Text | Print | Product List | Glossary On
Versions: 1 2 3 4 5 6 7 8 9 10 11 12 13 14 15 16 17 18 19 20 21 22 23 24 25 26 27
000
ASUS45 KSLC 291110
RWRUT

UTAH REGIONAL WEATHER ROUNDUP
NATIONAL WEATHER SERVICE SALT LAKE CITY UT
500 AM MDT FRI APR 29 2016

UTZ001>011-023>025-291200-

NORTHERN UTAH

CITY           SKY/WX    TMP DP  RH WIND       PRES   REMARKS
BRIGHAM CITY   CLOUDY    47  27  46 E21G35    29.88S
HILL AFB       CLOUDY    42  29  58 E16G26    29.86R
LOGAN          CLOUDY    45  28  51 E14G24    29.88F
OGDEN          MOCLDY    45  28  51 NW5       29.85S
PROVO AIRPORT  MOCLDY    41  36  81 CALM      29.86S
SALT LAKE CITY MOCLDY    44  34  67 CALM      29.85S
VERNAL         LGT RAIN  39  33  79 NE6       29.86R WCI  35
WENDOVER       CLEAR     48  28  46 W3        29.87S
HEBER CITY     LGT SNOW  34  32  93 E3        29.88R

$$

UTZ012>022-026-027-291200-

SOUTHERN/CENTRAL UTAH

CITY           SKY/WX    TMP DP  RH WIND       PRES   REMARKS
BLANDING       PTCLDY    34  31  88 N3        29.90S
BRYCE CANYON   MOCLDY    33  31  92 NW7       29.87R WCI  27
CEDAR CITY     CLOUDY    40  38  93 NW3       29.87R
DELTA          CLOUDY    41  39  93 S3        29.87S VSB 1/4
MILFORD        CLOUDY    41  39  93 W6        29.87R
MOAB/CYNLANDS  PTCLDY    38  36  92 NE3       29.81S
PRICE          CLOUDY    37  34  89 N7        29.83R WCI  32
ST GEORGE      CLOUDY    48  43  81 CALM      29.88R
KANAB          CLOUDY    41  41 100 CALM      29.90R

$$

REGIONAL REPORTS     COLORADO/ARIZONA

CITY           SKY/WX    TMP DP  RH WIND       PRES   REMARKS
CRAIG, CO      CLOUDY    38  33  82 E6        29.84F WCI  33
GRAND JUNCTION PTCLDY    40  36  86 N6        29.82S
RIFLE          CLOUDY    41  37  86 S3        29.82S
MONTROSE       CLOUDY    40  35  83 NW5       29.83S
CORTEZ         CLOUDY    32  29  88 SE6       29.84S WCI  26
PAGE, AZ       CLOUDY    46  44  93 CALM      29.83R
GRAND CANYON   CLOUDY    39  36  89 SW3       29.89R
KINGMAN        MOCLDY    46  41  82 CALM      29.88R
FLAGSTAFF      CLOUDY    34  34 100 SW9       29.89R WCI  27

$$

REGIONAL REPORTS    NEVADA/IDAHO/WYOMING

CITY           SKY/WX    TMP DP  RH WIND       PRES   REMARKS
LAS VEGAS, NV  PTCLDY    54  46  74 S6        29.81R
ELY            CLOUDY    33  31  92 S3        29.94R
ELKO           PTCLDY    41  36  82 VRB5      29.93S
POCATELLO, ID  CLOUDY    41  34  76 S3        29.87S
BURLEY         CLOUDY    44  36  73 W20       29.86S
EVANSTON, WY   CLOUDY    31  27  85 NE10      29.90S WCI  22
ROCK SPRINGS   LGT SNOW  30  26  85 NE14      29.93F FOG     WCI  19

$$




USA.gov is the U.S. government's official web portal to all federal, state and local government web resources and services.